Theta_e
296 296 296 297 297 298 298 300 302 303 307 314 321 323 325 325 325 325 326 326 324 323 322 321 321 320 320 319 319 318 318 317
294 293 293 293 293 294 295 297 296 297 299 303 307 315 322 324 325 325 326 326 325 324 322 322 321 320 319 319 319 318 318 318
292 292 291 290 291 291 292 294 293 294 295 297 301 304 308 316 323 325 325 326 326 325 324 322 322 321 319 318 318 318 317 318
288 288 289 289 288 289 290 291 291 291 292 294 296 299 301 303 307 314 321 324 326 326 324 323 322 321 321 320 319 318 318 318
285 286 286 287 286 286 287 290 289 288 290 291 293 296 296 299 302 306 311 316 322 325 325 324 324 323 321 320 320 319 319 319
282 282 284 284 284 284 285 286 286 286 288 289 291 292 291 293 295 298 302 308 314 319 323 324 324 323 322 321 320 319 319 319
280 280 282 281 281 282 282 284 283 284 285 287 287 287 288 288 289 291 294 299 304 310 316 319 321 312 307 315 321 319 318 318
278 278 279 279 279 279 280 281 281 283 283 284 283 283 284 285 286 287 290 293 296 301 307 312 317 308 304 302 318 320 319 318
276 276 277 277 278 278 277 278 279 278 280 280 279 281 282 282 283 285 287 289 291 294 299 304 308 304 304 300 312 318 320 320
276 275 275 275 275 274 274 275 275 276 276 276 277 278 279 280 282 284 286 287 289 291 293 296 300 300 300 301 311 313 315 318
274 273 273 274 273 272 272 272 273 273 273 274 276 276 276 278 281 284 285 286 287 288 290 291 294 297 297 300 306 308 309 309
272 271 272 272 272 270 270 271 271 272 272 273 274 274 275 277 280 283 285 286 286 287 289 290 292 295 296 298 301 304 306 305
269 269 271 271 270 269 269 270 270 270 270 270 271 272 275 275 278 282 285 285 285 286 287 290 292 292 295 296 297 300 300 302
268 268 268 269 269 267 268 269 268 267 267 268 270 272 274 275 277 280 284 285 285 285 286 287 289 291 293 294 294 295 295 299
266 265 266 267 267 266 267 267 265 265 267 268 269 270 273 275 277 279 282 283 284 285 285 286 287 289 291 290 292 290 291 293
264 264 264 265 265 265 265 265 264 265 266 268 269 270 272 274 274 276 280 282 283 285 286 285 286 288 290 291 290 291 292 287
263 263 262 262 262 262 263 264 263 264 265 267 268 269 270 271 272 277 279 281 284 287 288 288 289 290 290 291 291 292 293 287
262 262 261 260 260 261 262 263 262 262 265 266 267 267 268 269 269 269 273 278 280 282 282 283 281 283 287 290 291 292 292 288
259 257 257 258 258 260 261 261 260 262 264 265 265 266 267 267 268 269 269 269 270 275 277 278 279 282 287 289 290 287 288 287
256 255 256 257 257 259 260 260 259 262 263 264 264 265 266 267 267 267 267 267 268 269 271 274 276 277 278 279 282 286 286 286
Wind_Speed
15 16 16 16 18 19 19 17 16 16 13 11 9 9 12 13 14 14 14 15 14 15 17 17 19 18 18 15 17 17 15 14
11 12 13 16 18 18 19 18 19 17 17 14 13 13 10 11 14 15 15 16 16 16 16 18 18 18 17 18 19 20 19 18
12 12 14 15 16 15 17 17 17 16 16 16 15 14 13 13 14 13 15 16 17 17 17 18 18 17 19 20 18 20 20 21
13 14 14 14 16 16 15 15 16 17 17 17 16 16 17 16 16 15 15 14 16 16 18 18 18 18 20 21 21 21 21 21
12 13 13 13 13 15 16 15 16 17 16 16 17 17 17 17 17 16 15 16 15 16 18 18 18 18 19 20 20 20 19 20
13 13 13 14 15 15 13 15 17 17 15 16 16 16 17 17 17 18 16 14 15 16 16 16 16 14 18 19 19 19 20 20
12 14 14 17 17 16 17 16 17 15 15 15 16 17 17 17 18 18 17 16 15 14 15 16 13 16 19 19 17 19 20 20
13 13 13 15 16 14 17 17 16 16 16 15 17 17 17 17 17 17 17 17 16 16 15 16 17 16 16 19 18 18 17 20
12 14 15 14 13 14 15 14 14 15 14 16 18 19 18 19 17 17 16 17 17 17 17 16 15 16 17 17 17 19 22 21
12 15 16 15 16 16 16 15 16 15 17 18 18 20 20 20 20 19 17 17 16 16 19 18 18 16 17 13 14 17 22 20
12 13 13 15 16 17 16 16 16 18 19 18 18 19 20 20 20 18 16 17 14 18 16 20 20 20 17 14 11 17 14 14
10 12 13 14 16 16 16 16 18 18 18 18 18 19 19 19 18 19 17 17 17 17 17 19 18 18 20 17 14 13 12 12
11 12 13 14 14 16 16 17 17 17 18 18 18 15 15 19 18 18 16 16 17 16 15 14 14 13 16 18 20 20 15 15
12 13 12 13 14 16 17 17 17 17 17 15 17 16 16 17 17 15 14 12 13 12 13 14 12 12 13 19 21 20 16 14
11 11 12 12 14 14 15 16 16 16 17 15 16 18 17 14 14 14 13 13 13 12 13 13 12 11 9 8 9 13 13 14
9 10 11 13 13 14 14 15 15 15 14 14 13 16 16 15 14 14 15 17 17 14 13 14 14 12 17 16 12 10 11 6
7 9 10 11 12 13 14 15 15 14 13 12 12 14 13 14 16 22 28 31 31 30 22 13 22 26 26 25 23 24 23 7
9 9 10 11 11 11 13 14 14 13 14 12 13 12 13 14 14 17 19 29 28 31 32 32 31 31 30 27 23 22 18 10
6 6 7 9 11 12 13 13 12 12 15 12 11 12 12 13 14 13 14 16 15 22 28 32 36 33 29 26 20 9 6 7
5 5 6 9 11 12 13 13 13 11 10 11 11 11 14 12 12 12 13 13 14 14 20 25 34 30 30 31 14 8 5 5
Wind_Direction
21 17 13 11 7 11 11 13 13 4 355 329 294 268 257 251 248 242 243 242 233 221 216 214 217 219 218 223 226 223 222 223
17 14 13 11 9 6 6 3 5 359 345 341 332 324 289 261 254 248 245 242 238 231 224 220 219 218 217 220 224 223 225 225
22 10 10 13 2 3 3 358 356 349 342 340 336 335 324 307 286 270 257 250 244 238 231 226 224 215 217 220 222 225 225 224
16 14 4 8 2 349 359 352 346 344 341 340 342 341 335 326 315 303 287 267 254 244 240 236 229 223 221 221 223 225 229 227
7 3 1 359 345 346 357 349 344 337 338 336 337 337 336 327 323 316 309 297 280 259 249 242 237 230 225 226 226 227 229 227
357 353 350 349 348 344 338 339 343 332 333 333 328 334 330 328 327 322 315 305 297 287 269 256 243 236 229 226 228 226 229 231
350 348 347 346 341 335 340 339 332 326 328 327 335 332 328 327 325 321 315 312 303 293 280 269 257 243 229 225 226 232 232 236
345 342 341 336 333 339 330 330 324 326 325 332 333 324 324 321 320 317 318 314 305 296 287 277 271 261 240 236 240 238 233 234
338 336 334 332 331 331 327 323 324 323 326 333 327 322 322 319 318 317 315 313 308 300 292 284 277 272 263 233 238 247 244 238
339 333 330 331 336 330 330 331 330 333 336 329 325 320 320 318 318 315 308 306 303 299 295 287 280 274 271 253 253 247 245 244
337 327 329 337 334 332 333 334 337 336 329 325 319 316 312 310 308 308 300 299 301 296 288 283 281 278 269 268 268 255 250 246
339 336 338 335 336 333 332 335 333 326 323 319 317 312 306 304 303 300 302 300 300 298 297 293 284 282 279 266 263 263 259 244
344 338 342 341 337 333 331 332 327 324 320 318 315 312 307 305 307 299 298 297 301 300 299 301 298 278 270 264 259 268 266 258
343 338 340 339 340 333 332 329 326 324 319 317 317 315 312 308 308 304 298 296 298 300 301 302 305 300 272 268 271 267 265 268
343 342 335 335 330 327 324 329 324 323 322 324 326 323 318 312 313 313 306 301 298 298 298 301 302 300 297 273 274 275 273 271
345 335 327 327 329 330 328 328 328 325 325 331 328 325 321 318 315 311 307 306 304 294 292 296 294 293 290 289 289 281 271 257
334 327 325 329 324 322 333 334 332 326 330 334 332 328 326 322 320 320 318 317 314 304 288 284 287 293 293 284 279 276 272 243
327 328 324 318 318 323 332 336 332 328 327 328 337 329 332 330 328 327 329 330 333 339 351 355 345 335 326 303 282 277 270 244
311 311 304 317 322 329 329 328 331 331 333 328 333 330 331 331 331 331 334 333 335 340 348 348 345 339 335 321 304 286 251 246
302 310 319 330 319 322 326 332 334 334 333 332 332 333 330 330 332 337 338 336 334 336 348 353 350 353 358 359 345 297 260 250